StationID,Date,MaxTemp,MinTemp,Precipitation,Snowfall,SnowDepth
"CA002202360","1974-05-01",,,,0.00,
"CA002202360","1974-05-02",,,,0.00,
"CA002202360","1974-05-03",,,,0.00,
"CA002202360","1974-05-04",,,,0.00,
"CA002202360","1974-05-05",,,,0.00,
"CA002202360","1974-05-06",,,,0.00,
"CA002202360","1974-05-07",,,,0.00,
"CA002202360","1974-05-08",,,,0.00,
"CA002202360","1974-05-09",,,,0.00,
"CA002202360","1974-05-10",,,,0.00,
"CA002202360","1974-05-11",,,,0.00,
"CA002202360","1974-05-12",,,,0.00,
"CA002202360","1974-05-13",,,,0.00,
"CA002202360","1974-05-14",,,,0.00,
"CA002202360","1974-05-15",,,,0.00,
"CA002202360","1974-05-16",,,,0.00,
"CA002202360","1974-05-17",,,,0.00,
"CA002202360","1974-05-18",,,0.00,0.00,
"CA002202360","1974-05-19",55.04,,0.00,0.00,
"CA002202360","1974-05-20",69.08,41.00,0.00,0.00,
"CA002202360","1974-05-21",64.04,44.96,0.00,0.00,
"CA002202360","1974-05-22",60.08,42.08,20.00,0.00,
"CA002202360","1974-05-23",60.08,39.92,99.00,0.00,
"CA002202360","1974-05-24",46.94,39.02,28.00,13.00,
"CA002202360","1974-05-25",39.92,33.08,10.00,10.00,
"CA002202360","1974-05-26",46.94,32.00,0.00,0.00,
"CA002202360","1974-05-27",,32.00,0.00,0.00,
"CA002202360","1974-05-28",71.06,44.96,0.00,0.00,
"CA002202360","1974-05-29",69.08,51.98,0.00,0.00,
"CA002202360","1974-05-30",60.98,30.92,0.00,0.00,
"CA002202360","1974-05-31",71.06,41.00,0.00,0.00,
"CA002202360","1974-06-01",53.06,44.96,0.00,0.00,
"CA002202360","1974-06-02",53.96,37.04,0.00,0.00,
"CA002202360","1974-06-03",68.00,37.94,56.00,0.00,
"CA002202360","1974-06-04",73.94,48.92,8.00,0.00,
"CA002202360","1974-06-05",68.00,46.04,0.00,0.00,
"CA002202360","1974-06-06",64.04,50.00,10.00,0.00,
"CA002202360","1974-06-07",64.04,50.00,5.00,0.00,
"CA002202360","1974-06-08",78.98,48.02,0.00,0.00,
"CA002202360","1974-06-09",69.08,53.96,5.00,0.00,
"CA002202360","1974-06-10",64.94,51.98,0.00,0.00,
"CA002202360","1974-06-11",71.06,53.06,0.00,0.00,
"CA002202360","1974-06-12",62.06,53.96,0.00,0.00,
"CA002202360","1974-06-13",68.00,53.96,0.00,0.00,
"CA002202360","1974-06-14",66.92,48.92,0.00,0.00,
"CA002202360","1974-06-15",59.00,42.98,5.00,0.00,
"CA002202360","1974-06-16",55.94,44.96,38.00,0.00,
"CA002202360","1974-06-17",59.00,42.98,0.00,0.00,
"CA002202360","1974-06-18",59.00,39.92,0.00,0.00,
"CA002202360","1974-06-19",64.94,46.04,8.00,0.00,
"CA002202360","1974-06-20",78.98,53.06,0.00,0.00,
"CA002202360","1974-06-21",78.98,51.08,0.00,0.00,
"CA002202360","1974-06-22",62.96,50.00,0.00,0.00,
"CA002202360","1974-06-23",69.98,48.92,23.00,0.00,
"CA002202360","1974-06-24",80.96,51.98,0.00,0.00,
"CA002202360","1974-06-25",75.92,51.08,0.00,0.00,
"CA002202360","1974-06-26",64.94,57.02,0.00,0.00,
"CA002202360","1974-06-27",60.98,51.08,0.00,0.00,
"CA002202360","1974-06-28",62.06,44.06,0.00,0.00,
"CA002202360","1974-06-29",78.08,53.06,0.00,0.00,
"CA002202360","1974-06-30",84.02,55.04,0.00,0.00,
"CA002202360","1974-07-01",91.04,62.96,0.00,0.00,
"CA002202360","1974-07-02",95.00,66.92,0.00,0.00,
"CA002202360","1974-07-03",82.04,68.00,122.00,0.00,
"CA002202360","1974-07-04",77.00,60.08,28.00,0.00,
"CA002202360","1974-07-05",73.94,55.94,10.00,0.00,
"CA002202360","1974-07-06",69.98,55.94,0.00,0.00,
"CA002202360","1974-07-07",78.08,55.04,0.00,0.00,
"CA002202360","1974-07-08",78.08,59.00,0.00,0.00,
"CA002202360","1974-07-09",89.06,62.06,0.00,0.00,
"CA002202360","1974-07-10",91.04,66.02,0.00,0.00,
"CA002202360","1974-07-11",93.92,68.00,0.00,0.00,
"CA002202360","1974-07-12",82.94,71.06,0.00,0.00,
"CA002202360","1974-07-13",73.04,62.96,0.00,0.00,
"CA002202360","1974-07-14",69.98,57.02,0.00,0.00,
"CA002202360","1974-07-15",75.92,53.96,0.00,0.00,
"CA002202360","1974-07-16",78.98,60.98,0.00,0.00,
"CA002202360","1974-07-17",78.98,55.04,0.00,0.00,
"CA002202360","1974-07-18",66.92,60.98,5.00,0.00,
"CA002202360","1974-07-19",75.02,51.08,185.00,0.00,
"CA002202360","1974-07-20",57.92,53.96,15.00,0.00,
"CA002202360","1974-07-21",60.08,46.94,8.00,0.00,
"CA002202360","1974-07-22",69.08,51.08,8.00,0.00,
"CA002202360","1974-07-23",66.92,57.92,30.00,0.00,
"CA002202360","1974-07-24",62.06,51.98,74.00,0.00,
"CA002202360","1974-07-25",71.06,53.06,13.00,0.00,
"CA002202360","1974-07-26",71.96,48.92,0.00,0.00,
"CA002202360","1974-07-27",68.00,44.96,0.00,0.00,
"CA002202360","1974-07-28",60.08,51.08,20.00,0.00,
"CA002202360","1974-07-29",60.98,44.96,5.00,0.00,
"CA002202360","1974-07-30",69.08,46.94,0.00,0.00,
"CA002202360","1974-07-31",75.02,55.04,0.00,0.00,
"CA002202360","1974-08-01",73.94,55.04,0.00,0.00,
"CA002202360","1974-08-02",69.98,51.98,0.00,0.00,
"CA002202360","1974-08-03",68.00,51.98,160.00,0.00,
"CA002202360","1974-08-04",60.98,53.06,5.00,0.00,
"CA002202360","1974-08-05",69.98,53.06,36.00,0.00,
"CA002202360","1974-08-06",66.02,50.00,25.00,0.00,
"CA002202360","1974-08-07",55.94,51.08,51.00,0.00,
"CA002202360","1974-08-08",64.94,48.92,5.00,0.00,
"CA002202360","1974-08-09",,46.94,,0.00,
"CA002202360","1974-08-10",73.94,,0.00,0.00,
"CA002202360","1974-08-11",75.02,69.98,5.00,0.00,
"CA002202360","1974-08-12",53.96,42.08,79.00,0.00,
"CA002202360","1974-08-13",64.04,41.00,0.00,0.00,
"CA002202360","1974-08-14",64.04,48.92,3.00,0.00,
"CA002202360","1974-08-15",60.08,42.08,0.00,0.00,
"CA002202360","1974-08-16",69.98,53.06,0.00,0.00,
"CA002202360","1974-08-17",,48.92,,0.00,
"CA002202360","1974-08-18",,,,0.00,
"CA002202360","1974-08-19",,,,0.00,
"CA002202360","1974-08-20",,,,0.00,
"CA002202360","1974-08-21",,,,0.00,
"CA002202360","1974-08-22",,,,0.00,
"CA002202360","1974-08-23",,,,0.00,
"CA002202360","1974-08-24",,,,0.00,
"CA002202360","1974-08-25",,,,0.00,
"CA002202360","1974-08-26",,,,0.00,
"CA002202360","1974-08-27",,,,0.00,
"CA002202360","1974-08-28",,,,0.00,
"CA002202360","1974-08-29",,,,0.00,
"CA002202360","1974-08-30",,,,0.00,
"CA002202360","1974-08-31",,,,0.00,
